[Date Prev][Date Next][Thread Prev][Thread Next] - [Date Index][Thread Index][Author Index]

2 Line ISS Keps 6-7



ISS
1 25544U 98067A   04159.32611111  .00015088  00000-0  13390-3 0  9402
2 25544  51.6334  16.0060 0005497 201.8999 146.4114 15.68782116316769


----
Via the sarex mailing list at AMSAT.ORG courtesy of AMSAT-NA.
To unsubscribe, send "unsubscribe sarex" to Majordomo@amsat.org



AMSAT Top AMSAT Home